Location: Volkssternwarte_EN
(51.3230°N, 7.4010°E)
Time: 08:04:05
(UTC+01:00)

BlueWalker 3 - Pass Details

Date: 04 December 2022
Orbit: 499 x 517 km, 53.2° (Epoch: 28 January)

Event Time Altitude Azimuth Distance (km) Brightness Sun altitude
Rises 19:34:19 0° 289° (WNW) 2,628 6.6 -28.6°
Reaches altitude 10° 19:36:32 10° 287° (WNW) 1,736 5.5 -29.0°
Enters shadow 19:38:30 28° 280° (W) 990 4.0 -29.3°
